Location: Chełmno
(53.3480°N, 18.4232°E)
Time: 10:55:35
(UTC+02:00)

ISS - Visible Passes

Search period start: 22 September 2018 00:00
Search period end: 02 October 2018 00:00
Orbit: 403 x 408 km, 51.6° (Epoch: 22 September)

Date Brightness Start Highest point End Pass type
(mag) Time Alt. Az. Time Alt. Az. Time Alt. Az.
22 Sep -1.3 20:28:35 10° S 20:28:50 11° S 20:28:50 11° S visible
23 Sep -1.6 19:38:16 10° SSE 19:39:06 11° SE 19:39:34 10° SE visible
23 Sep -1.2 21:11:51 10° SW 21:12:17 13° SW 21:12:17 13° SW visible
24 Sep -2.6 20:20:18 10° SSW 20:22:49 26° SSE 20:22:49 26° SSE visible
25 Sep -2.1 19:29:00 10° SSW 19:31:24 19° SSE 19:33:12 13° ESE visible
25 Sep -2.1 21:04:13 10° WSW 21:05:53 26° SW 21:05:53 26° SW visible
26 Sep -3.3 20:12:27 10° SW 20:15:35 40° SSE 20:16:08 36° SE visible
26 Sep -0.7 21:48:35 10° W 21:48:48 11° W 21:48:48 11° W visible
27 Sep -2.7 19:20:48 10° SW 19:23:45 30° SSE 19:26:17 13° E visible
27 Sep -2.7 20:56:41 10° WSW 20:58:57 39° WSW 20:58:57 39° WSW visible
28 Sep -3.6 20:04:48 10° WSW 20:08:03 55° SSE 20:09:02 37° ESE visible
28 Sep -0.8 21:41:08 10° W 21:41:42 14° W 21:41:42 14° W visible
29 Sep -3.2 19:12:58 10° SW 19:16:08 44° SSE 19:19:03 12° E visible
29 Sep -3.0 20:49:11 10° W 20:51:43 47° WSW 20:51:43 47° WSW visible
30 Sep -3.7 19:57:14 10° WSW 20:00:31 65° S 20:01:42 35° ESE visible
30 Sep -0.9 21:33:39 10° W 21:34:21 15° W 21:34:21 15° W visible
01 Oct -3.5 19:05:18 10° WSW 19:08:33 58° S 19:11:39 11° E visible
01 Oct -3.1 20:41:39 10° W 20:44:18 47° SW 20:44:18 47° SW visible
